| time (UTC) | temp F | wind direction | speed MPH | gust MPH | rain 1hr in | rain 24hr in | rain mn in | humidity % | barometer mb |
| 20260510125717 | 42 | 261 | 3.0 | 6.0 | 0.00 | 0.14 | 0.00 | 84 | 1012.7 |
| 20260510122717 | 42 | 261 | 3.0 | 6.0 | 0.00 | 0.14 | 0.00 | 85 | 1012.4 |
| 20260510122459 | 42 | 261 | 3.0 | 8.0 | 0.00 | 0.14 | 0.00 | 85 | 1012.1 |
| 20260510112717 | 42 | 261 | 3.0 | 9.0 | 0.00 | 0.14 | 0.00 | 84 | 1011.4 |
| 20260510105717 | 42 | 261 | 3.0 | 9.0 | 0.00 | 0.14 | 0.00 | 84 | 1011.0 |
| 20260510102715 | 42 | 261 | 3.0 | 13.0 | 0.00 | 0.14 | 0.00 | 85 | 1010.5 |
| 20260510102437 | 42 | 261 | 5.0 | 13.0 | 0.00 | 0.14 | 0.00 | 83 | 1010.1 |
| 20260510092711 | 42 | 261 | 3.0 | 9.0 | 0.00 | 0.14 | 0.00 | 84 | 1009.6 |
| 20260510085710 | 43 | 261 | 4.0 | 14.0 | 0.00 | 0.14 | 0.00 | 83 | 1009.3 |
| 20260510082710 | 42 | 0 | 3.0 | 14.0 | 0.00 | 0.14 | 0.00 | 86 | 1008.9 |
| 20260510075711 | 43 | 261 | 7.0 | 13.0 | 0.00 | 0.14 | 0.00 | 81 | 1008.5 |
| 20260510072710 | 42 | 261 | 4.0 | 10.0 | 0.00 | 0.14 | 0.00 | 83 | 1008.3 |
| 20260510065708 | 42 | 0 | 2.0 | 8.0 | 0.00 | 0.14 | 0.00 | 85 | 1008.3 |
| 20260510062708 | 42 | 0 | 2.0 | 8.0 | 0.00 | 0.14 | 0.00 | 84 | 1008.0 |
| 20260510055710 | 42 | 261 | 4.0 | 9.0 | 0.00 | 0.14 | 0.00 | 85 | 1007.9 |
| 20260510052708 | 42 | 261 | 5.0 | 12.0 | 0.00 | 0.14 | 0.00 | 85 | 1007.7 |
| 20260510045708 | 43 | 261 | 6.0 | 14.0 | 0.00 | 0.14 | 0.00 | 84 | 1007.3 |
| 20260510045513 | 43 | 261 | 5.0 | 13.0 | 0.00 | 0.14 | 0.00 | 83 | 1007.0 |
| 20260510035709 | 44 | 31 | 7.0 | 16.0 | 0.00 | 0.14 | 0.14 | 83 | 1006.5 |
| 20260510032707 | 44 | 261 | 5.0 | 12.0 | 0.00 | 0.14 | 0.14 | 83 | 1006.2 |
| 20260510025705 | 44 | 261 | 5.0 | 12.0 | 0.00 | 0.14 | 0.14 | 83 | 1005.8 |
| 20260510022704 | 45 | 261 | 3.0 | 10.0 | 0.00 | 0.14 | 0.14 | 78 | 1005.2 |
| 20260510021053 | 47 | 261 | 3.0 | 10.0 | 0.00 | 0.14 | 0.14 | 70 | 1004.6 |
| 20260510013813 | 47 | 14 | 1.0 | 6.0 | 0.00 | 0.14 | 0.14 | 75 | 1003.3 |
| 20260510012702 | 46 | 261 | 1.0 | 4.0 | 0.00 | 0.14 | 0.14 | 72 | 1003.8 |
| 20260510002700 | 48 | 261 | 2.0 | 7.0 | 0.00 | 0.14 | 0.14 | 77 | 1002.6 |
| 20260510001047 | 48 | 43 | 1.0 | 8.0 | 0.00 | 0.14 | 0.14 | 78 | 1002.1 |
| 20260509234044 | 46 | 57 | 3.0 | 11.0 | 0.00 | 0.14 | 0.14 | 85 | 1001.5 |
| 20260509225700 | 49 | 261 | 6.0 | 12.0 | 0.00 | 0.14 | 0.14 | 81 | 1001.0 |
| 20260509222700 | 52 | 261 | 3.0 | 7.0 | 0.00 | 0.14 | 0.14 | 79 | 999.9 |
| 20260509215700 | 52 | 261 | 1.0 | 7.0 | 0.00 | 0.14 | 0.14 | 79 | 999.7 |
| 20260509212700 | 54 | 261 | 1.0 | 6.0 | 0.00 | 0.14 | 0.14 | 80 | 999.3 |
| 20260509212445 | 54 | 261 | 2.0 | 12.0 | 0.00 | 0.14 | 0.14 | 83 | 998.9 |
| 20260509202658 | 54 | 261 | 2.0 | 11.0 | 0.00 | 0.14 | 0.14 | 85 | 998.5 |
| 20260509201047 | 53 | 261 | 3.0 | 12.0 | 0.11 | 0.14 | 0.14 | 91 | 998.4 |
| 20260509192658 | 53 | 261 | 4.0 | 18.0 | 0.11 | 0.14 | 0.14 | 91 | 998.1 |
| 20260509185658 | 60 | 261 | 5.0 | 21.0 | 0.00 | 0.03 | 0.03 | 72 | 997.2 |
| 20260509184113 | 62 | 261 | 7.0 | 24.0 | 0.00 | 0.03 | 0.03 | 67 | 997.4 |
| 20260509175657 | 65 | 261 | 8.0 | 25.0 | 0.00 | 0.03 | 0.03 | 59 | 997.6 |
| 20260509172657 | 62 | 261 | 8.0 | 24.0 | 0.00 | 0.03 | 0.03 | 65 | 997.1 |
| 20260509165658 | 61 | 185 | 7.0 | 21.0 | 0.02 | 0.03 | 0.03 | 72 | 997.3 |
| 20260509162657 | 59 | 261 | 5.0 | 19.0 | 0.02 | 0.03 | 0.03 | 77 | 998.1 |
| 20260509161043 | 59 | 261 | 5.0 | 17.0 | 0.00 | 0.01 | 0.01 | 77 | 998.7 |
| 20260509152657 | 56 | 261 | 5.0 | 14.0 | 0.01 | 0.01 | 0.01 | 80 | 999.6 |
| 20260509145659 | 54 | 261 | 2.0 | 14.0 | 0.01 | 0.01 | 0.01 | 89 | 1000.7 |
| 20260509142657 | 53 | 261 | 1.0 | 8.0 | 0.00 | 0.00 | 0.00 | 82 | 1001.5 |
| 20260509135659 | 54 | 261 | 2.0 | 8.0 | 0.00 | 0.00 | 0.00 | 80 | 1000.9 |